Preview of NWS' New Version of Forecast
This preview is not operational and should not be used for support decisions.

Regional Weather Roundup (RWR)

Issued by National Weather Service (NWS)

                            
000
ASUS43 KDMX 240301
RWRIA 

WEATHER ROUNDUP FOR IOWA
NATIONAL WEATHER SERVICE DES MOINES IA
1000 PM CDT SAT MAR 23 2019

NOTE: "FAIR" INDICATES FEW OR NO CLOUDS BELOW 12,000 FEET WITH NO
SIGNIFICANT WEATHER AND/OR OBSTRUCTIONS TO VISIBILITY.

* - THESE STATIONS ARE NOT NWS STATIONS...THUS NOT UNDER NWS
QUALITY CONTROL.  THEY ALSO DO NOT REPORT WEATHER SUCH 
AS PRECIPITATION OR FOG.  

IAZ001>003-012>014-020>022-031>034-043>046-240400-
   NORTHWEST IOWA
  
CITY           SKY/WX    TMP DP  RH WIND       PRES   REMARKS
CARROLL *      CLOUDY    45  41  87 SE9       30.05R                  
CHEROKEE *     CLOUDY    44  38  78 NE3       30.05S                  
DENISON *      CLOUDY    45  41  87 SE8       30.04R                  
LE MARS *      CLOUDY    45  39  81 E8        30.04R                  
SHELDON *      CLOUDY    45  45 100 E9        30.04S                  
SIOUX CITY     CLOUDY    46  37  71 E6        30.02R                  
SPENCER        CLOUDY    45  38  76 E7        30.07S                  
STORM LAKE *   CLOUDY    41  41 100 E10       30.01S                  
$$
 
IAZ055>058-069>071-079>083-090>094-240400-
   SOUTHWEST IOWA
  
CITY           SKY/WX    TMP DP  RH WIND       PRES   REMARKS
ATLANTIC *     CLOUDY    46  45  93 E15G21    30.02S                  
AUDUBON *      CLOUDY    45  39  81 CALM      30.05R                  
CLARINDA *     CLOUDY    50  43  76 S6G12     30.03S                  
COUNCIL BLFS * CLOUDY    46  46 100 SE15      29.99F                  
CRESTON *      CLOUDY    46  43  87 E10       30.03S                  
HARLAN  *      CLOUDY    46  41  81 E12       30.01F                  
LAMONI         CLOUDY    50  39  66 SE8       30.04S                  
RED OAK *      CLOUDY    48  45  87 E12G18    30.01S                  
SHENANDOAH *   CLOUDY    50  43  76 SE9G16    29.99S                  
$$
 
IAZ047>049-059>061-072>074-084-240400-
   CENTRAL IOWA
  
CITY           SKY/WX    TMP DP  RH WIND       PRES   REMARKS
AMES           LGT RAIN  46  38  73 E5        30.08S                  
ANKENY *       LGT RAIN  46  39  76 E6        30.09F                  
BOONE *        CLOUDY    45  43  93 E9        30.07S                  
CHARITON *     CLOUDY    46  39  76 SE10      30.07R                  
DES MOINES     LGT RAIN  47  38  71 E10       30.07F                  
GRINNELL*      CLOUDY    46  35  64 SE7       30.11S                  
KNOXVILLE *    CLOUDY    48  39  71 SE9       30.08S                  
MARSHALLTOWN   CLOUDY    44  36  73 SE7       30.10R                  
NEWTON *       CLOUDY    48  36  61 SE12      30.09S                  
PELLA *        LGT RAIN  47  37  65 SE8       30.11S                  
PERRY *        CLOUDY    45  42  89 E9        30.06S                  
$$
 
IAZ004>006-015-016-023>025-035-036-240400-
   NORTH CENTRAL IOWA
  
CITY           SKY/WX    TMP DP  RH WIND       PRES   REMARKS
ALGONA *       CLOUDY    45  41  87 SE9       30.07S                  
CLARION *      CLOUDY    46  37  71 SE13      30.09S                  
ESTHERVILLE    CLOUDY    42  38  85 SE8       30.08S                  
FORT DODGE *   CLOUDY    44  38  79 E9        30.08S                  
MASON CITY     CLOUDY    44  36  73 SE9       30.11F                  
FOREST CITY *  CLOUDY    45  36  70 SE8       30.09F                  
IOWA FALLS *   CLOUDY    44  38  82 E6        30.11S                  
$$

IAZ007>011-017>019-026>030-037>042-050>054-066-240400-
   NORTHEAST IOWA
  
CITY           SKY/WX    TMP DP  RH WIND       PRES   REMARKS
CEDAR RAPIDS   CLOUDY    47  33  58 SE10      30.12F                  
CLINTON *      CLOUDY    46  35  65 SE8       30.17F                  
DECORAH *      CLOUDY    45  36  70 SE5       30.12F                  
DUBUQUE        MOCLDY    45  32  60 SE9       30.15F                  
OELWEIN *      CLOUDY    43  37  81 SE6       30.13S                  
WATERLOO       CLOUDY    43  36  76 E6        30.12S                  
$$
 
IAZ064-065-067-068-078-240400-
   EAST CENTRAL IOWA
  
CITY           SKY/WX    TMP DP  RH WIND       PRES   REMARKS
DAVENPORT      FAIR      45  31  58 SE8       30.18S                  
IOWA CITY      FAIR      47  33  58 SE9       30.15F                  
MT. PLEASANT * CLOUDY    46  37  71 SE7       30.14S                  
MUSCATINE *    CLOUDY    48  34  57 SE8       30.15F                  
QUAD CITIES    FAIR      43  31  62 SE6       30.16S                  
$$
 
IAZ062-063-075>077-085>089-095>099-240400-
   SOUTHEAST IOWA
  
CITY           SKY/WX    TMP DP  RH WIND       PRES   REMARKS
BURLINGTON     CLOUDY    47  33  58 E5        30.14S                  
FAIRFIELD *    CLOUDY    48  36  61 SE7       30.12R                  
FORT MADISON * MOCLDY    48  36  61 CALM      30.15R                  
KEOKUK *       CLOUDY    48  34  57 VRB6      30.13R                  
OSKALOOSA *    CLOUDY    46  37  70 SE10      30.10F                  
CENTERVILLE *  FAIR      48  36  61 E8        30.10S                  
OTTUMWA        CLOUDY    47  36  65 E9        30.10R                  
WASHINGTON *   CLOUDY    45  37  76 E9        30.13F                  
$$

ABBREVIATIONS USED IN REMARKS
   TC - TEMPERATURES IN CELSIUS
  WCI - WIND CHILL INDEX
   HX - HEAT INDEX
  VSB - VISIBILITY  
$$